| time (UTC) | temp F | wind direction | speed MPH | gust MPH | rain 1hr in | rain 24hr in | rain mn in | humidity % | barometer mb |
| 20260510203129 | 88 | 255 | 4.0 | 10.0 | 0.00 | 0.00 | 0.00 | 9 | 1018.4 |
| 20260510201640 | 87 | 310 | 3.0 | 14.0 | 0.00 | 0.00 | 0.00 | 10 | 1018.6 |
| 20260510200135 | 87 | 288 | 5.0 | 11.0 | 0.00 | 0.00 | 0.00 | 11 | 1018.7 |
| 20260510194626 | 85 | 13 | 11.0 | 15.0 | 0.00 | 0.00 | 0.00 | 11 | 1018.6 |
| 20260510193140 | 85 | 344 | 6.0 | 9.0 | 0.00 | 0.00 | 0.00 | 11 | 1018.6 |
| 20260510191631 | 86 | 292 | 3.0 | 13.0 | 0.00 | 0.00 | 0.00 | 11 | 1018.8 |
| 20260510190141 | 85 | 325 | 7.0 | 12.0 | 0.00 | 0.00 | 0.00 | 12 | 1018.8 |
| 20260510184634 | 85 | 355 | 6.0 | 13.0 | 0.00 | 0.00 | 0.00 | 12 | 1018.8 |
| 20260510183123 | 86 | 43 | 5.0 | 14.0 | 0.00 | 0.00 | 0.00 | 10 | 1018.8 |
| 20260510181637 | 87 | 360 | 8.0 | 11.0 | 0.00 | 0.00 | 0.00 | 10 | 1019.0 |
| 20260510180129 | 84 | 85 | 2.0 | 4.0 | 0.00 | 0.00 | 0.00 | 10 | 1018.8 |
| 20260510174700 | 83 | 336 | 2.0 | 7.0 | 0.00 | 0.00 | 0.00 | 11 | 1019.0 |
| 20260510173135 | 84 | 103 | 5.0 | 10.0 | 0.00 | 0.00 | 0.00 | 11 | 1018.8 |
| 20260510171646 | 84 | 128 | 5.0 | 9.0 | 0.00 | 0.00 | 0.00 | 10 | 1018.9 |
| 20260510170135 | 82 | 121 | 6.0 | 11.0 | 0.00 | 0.00 | 0.00 | 11 | 1018.9 |
| 20260510164630 | 81 | 132 | 6.0 | 10.0 | 0.00 | 0.00 | 0.00 | 13 | 1018.9 |
| 20260510163139 | 80 | 143 | 6.0 | 11.0 | 0.00 | 0.00 | 0.00 | 13 | 1018.6 |
| 20260510161634 | 81 | 174 | 5.0 | 8.0 | 0.00 | 0.00 | 0.00 | 12 | 1018.5 |
| 20260510160144 | 80 | 164 | 5.0 | 8.0 | 0.00 | 0.00 | 0.00 | 12 | 1018.2 |
| 20260510154639 | 79 | 184 | 5.0 | 8.0 | 0.00 | 0.00 | 0.00 | 13 | 1018.0 |
| 20260510153128 | 78 | 215 | 4.0 | 9.0 | 0.00 | 0.00 | 0.00 | 14 | 1017.8 |
| 20260510151658 | 76 | 97 | 5.0 | 8.0 | 0.00 | 0.00 | 0.00 | 15 | 1017.8 |
| 20260510150131 | 75 | 94 | 3.0 | 6.0 | 0.00 | 0.00 | 0.00 | 15 | 1017.9 |
| 20260510143134 | 73 | 55 | 3.0 | 7.0 | 0.00 | 0.00 | 0.00 | 16 | 1017.4 |
| 20260510141624 | 72 | 267 | 1.0 | 5.0 | 0.00 | 0.00 | 0.00 | 16 | 1017.1 |
| 20260510140134 | 70 | 299 | 8.0 | 13.0 | 0.00 | 0.00 | 0.00 | 17 | 1017.0 |
| 20260510134630 | 69 | 308 | 7.0 | 11.0 | 0.00 | 0.00 | 0.00 | 18 | 1017.0 |
| 20260510133201 | 67 | 341 | 5.0 | 16.0 | 0.00 | 0.00 | 0.00 | 20 | 1017.0 |
| 20260510131634 | 66 | 23 | 9.0 | 13.0 | 0.00 | 0.00 | 0.00 | 21 | 1016.4 |
| 20260510130124 | 65 | 272 | 4.0 | 7.0 | 0.00 | 0.00 | 0.00 | 23 | 1017.4 |
| 20260510124634 | 64 | 315 | 3.0 | 6.0 | 0.00 | 0.00 | 0.00 | 23 | 1016.8 |
| 20260510123151 | 64 | 1 | 5.0 | 8.0 | 0.00 | 0.00 | 0.00 | 21 | 1016.3 |
| 20260510121701 | 61 | 338 | 4.0 | 6.0 | 0.00 | 0.00 | 0.00 | 24 | 1016.1 |
| 20260510120136 | 62 | 322 | 2.0 | 3.0 | 0.00 | 0.00 | 0.00 | 24 | 1015.9 |
| 20260510114627 | 61 | 359 | 2.0 | 4.0 | 0.00 | 0.00 | 0.00 | 24 | 1016.0 |
| 20260510113121 | 61 | 35 | 2.0 | 4.0 | 0.00 | 0.00 | 0.00 | 25 | 1015.9 |
| 20260510111654 | 61 | 7 | 2.0 | 7.0 | 0.00 | 0.00 | 0.00 | 25 | 1015.7 |
| 20260510110125 | 56 | 335 | 1.0 | 3.0 | 0.00 | 0.00 | 0.00 | 30 | 1015.3 |
| 20260510104640 | 56 | 41 | 2.0 | 3.0 | 0.00 | 0.00 | 0.00 | 30 | 1015.3 |
| 20260510103129 | 56 | 106 | 2.0 | 8.0 | 0.00 | 0.00 | 0.00 | 30 | 1014.7 |
| 20260510101623 | 57 | 230 | 0.0 | 2.0 | 0.00 | 0.00 | 0.00 | 28 | 1014.5 |
| 20260510100133 | 57 | 277 | 0.0 | 1.0 | 0.00 | 0.00 | 0.00 | 28 | 1014.3 |
| 20260510094623 | 58 | 293 | 0.0 | 1.0 | 0.00 | 0.00 | 0.00 | 27 | 1014.1 |
| 20260510093138 | 58 | 293 | 0.0 | 1.0 | 0.00 | 0.00 | 0.00 | 27 | 1013.9 |
| 20260510091629 | 58 | 316 | 0.0 | 4.0 | 0.00 | 0.00 | 0.00 | 27 | 1013.8 |
| 20260510090123 | 59 | 341 | 2.0 | 4.0 | 0.00 | 0.00 | 0.00 | 26 | 1013.5 |
| 20260510084633 | 59 | 80 | 1.0 | 3.0 | 0.00 | 0.00 | 0.00 | 26 | 1013.3 |
| 20260510083127 | 61 | 263 | 0.0 | 3.0 | 0.00 | 0.00 | 0.00 | 25 | 1013.2 |
| 20260510081657 | 63 | 256 | 0.0 | 1.0 | 0.00 | 0.00 | 0.00 | 22 | 1013.2 |
| 20260510080126 | 63 | 131 | 0.0 | 3.0 | 0.00 | 0.00 | 0.00 | 21 | 1013.1 |
| 20260510074621 | 62 | 124 | 0.0 | 0.0 | 0.00 | 0.00 | 0.00 | 22 | 1013.2 |
| 20260510073130 | 64 | 293 | 0.0 | 2.0 | 0.00 | 0.00 | 0.00 | 21 | 1013.7 |
| 20260510071624 | 66 | 73 | 3.0 | 5.0 | 0.00 | 0.00 | 0.00 | 19 | 1013.7 |
| 20260510070135 | 67 | 114 | 1.0 | 3.0 | 0.00 | 0.00 | 0.00 | 18 | 1013.4 |
| 20260510064624 | 69 | 250 | 1.0 | 2.0 | 0.00 | 0.00 | 0.00 | 17 | 1013.6 |
| 20260510063140 | 71 | 168 | 1.0 | 4.0 | 0.00 | 0.00 | 0.00 | 15 | 1013.3 |
| 20260510061630 | 71 | 159 | 2.0 | 4.0 | 0.00 | 0.00 | 0.00 | 15 | 1013.3 |
| 20260510060146 | 72 | 159 | 2.0 | 4.0 | 0.00 | 0.00 | 0.00 | 14 | 1013.3 |
| 20260510054635 | 74 | 135 | 4.0 | 7.0 | 0.00 | 0.00 | 0.00 | 13 | 1013.3 |
| 20260510053145 | 75 | 118 | 5.0 | 7.0 | 0.00 | 0.00 | 0.00 | 12 | 1013.3 |
| 20260510051623 | 75 | 130 | 3.0 | 6.0 | 0.00 | 0.00 | 0.00 | 11 | 1013.3 |
| 20260510050133 | 76 | 135 | 3.0 | 7.0 | 0.00 | 0.00 | 0.00 | 11 | 1013.3 |
| 20260510044626 | 76 | 126 | 4.0 | 6.0 | 0.00 | 0.00 | 0.00 | 12 | 1013.5 |
| 20260510043137 | 76 | 135 | 2.0 | 7.0 | 0.00 | 0.00 | 0.00 | 12 | 1013.4 |
| 20260510041631 | 75 | 144 | 4.0 | 6.0 | 0.00 | 0.00 | 0.00 | 13 | 1013.4 |
| 20260510040141 | 75 | 144 | 2.0 | 5.0 | 0.00 | 0.00 | 0.00 | 13 | 1013.3 |
| 20260510034629 | 75 | 132 | 2.0 | 6.0 | 0.00 | 0.00 | 0.00 | 12 | 1013.1 |
| 20260510031622 | 72 | 119 | 2.0 | 4.0 | 0.00 | 0.00 | 0.00 | 14 | 1012.9 |
| 20260510030155 | 75 | 135 | 1.0 | 4.0 | 0.00 | 0.00 | 0.00 | 13 | 1012.8 |
| 20260510024627 | 76 | 125 | 2.0 | 4.0 | 0.00 | 0.00 | 0.00 | 12 | 1012.7 |
| 20260510023137 | 77 | 104 | 4.0 | 5.0 | 0.00 | 0.00 | 0.00 | 12 | 1012.3 |
| 20260510021630 | 79 | 112 | 3.0 | 4.0 | 0.00 | 0.00 | 0.00 | 11 | 1012.3 |
| 20260510020140 | 81 | 128 | 2.0 | 4.0 | 0.00 | 0.00 | 0.00 | 11 | 1012.2 |
| 20260510014629 | 83 | 122 | 2.0 | 4.0 | 0.00 | 0.00 | 0.00 | 9 | 1012.2 |
| 20260510013123 | 84 | 149 | 2.0 | 4.0 | 0.00 | 0.00 | 0.00 | 9 | 1012.0 |
| 20260510011631 | 86 | 116 | 1.0 | 6.0 | 0.00 | 0.00 | 0.00 | 9 | 1012.0 |
| 20260510010125 | 88 | 144 | 2.0 | 5.0 | 0.00 | 0.00 | 0.00 | 9 | 1011.9 |
| 20260510004635 | 89 | 114 | 4.0 | 6.0 | 0.00 | 0.00 | 0.00 | 9 | 1012.0 |
| 20260510003128 | 89 | 109 | 3.0 | 6.0 | 0.00 | 0.00 | 0.00 | 9 | 1012.1 |
| 20260510001659 | 90 | 101 | 4.0 | 7.0 | 0.00 | 0.00 | 0.00 | 9 | 1012.1 |
| 20260510000125 | 91 | 162 | 1.0 | 7.0 | 0.00 | 0.00 | 0.00 | 9 | 1012.3 |
| 20260509234639 | 91 | 132 | 1.0 | 7.0 | 0.00 | 0.00 | 0.00 | 9 | 1012.3 |
| 20260509233127 | 91 | 229 | 3.0 | 8.0 | 0.00 | 0.00 | 0.00 | 9 | 1012.6 |
| 20260509231621 | 90 | 152 | 1.0 | 4.0 | 0.00 | 0.00 | 0.00 | 9 | 1012.7 |
| 20260509230152 | 91 | 236 | 4.0 | 6.0 | 0.00 | 0.00 | 0.00 | 9 | 1012.8 |
| 20260509224701 | 91 | 252 | 2.0 | 6.0 | 0.00 | 0.00 | 0.00 | 9 | 1012.8 |
| 20260509223135 | 91 | 232 | 3.0 | 11.0 | 0.00 | 0.00 | 0.00 | 9 | 1013.0 |
| 20260509221625 | 90 | 54 | 4.0 | 7.0 | 0.00 | 0.00 | 0.00 | 9 | 1013.3 |
| 20260509220137 | 91 | 197 | 2.0 | 6.0 | 0.00 | 0.00 | 0.00 | 9 | 1013.5 |
| 20260509214630 | 90 | 262 | 1.0 | 10.0 | 0.00 | 0.00 | 0.00 | 9 | 1013.8 |
| 20260509213200 | 90 | 190 | 3.0 | 13.0 | 0.00 | 0.00 | 0.00 | 9 | 1014.1 |
| 20260509211633 | 90 | 220 | 1.0 | 10.0 | 0.00 | 0.00 | 0.00 | 9 | 1014.3 |
| 20260509210122 | 90 | 213 | 2.0 | 5.0 | 0.00 | 0.00 | 0.00 | 9 | 1014.4 |
| 20260509204636 | 89 | 234 | 5.0 | 9.0 | 0.00 | 0.00 | 0.00 | 9 | 1014.8 |